User: anonymous   Login
Location: Dreilärchen
(47.9312°N, 8.6113°E)
Time: 14:02:49
(UTC+00:00)
Language:

SL-16 R/B - Orbit

View from above orbital plane
View from above orbital plane
View from above satellite
View from above satellite

Ground track
Ground track

The orbit data is extracted from the following two-line orbital elements,

1 27006U 01056F   24053.96682500 -.00000015  00000-0  34214-4 0  9992
2 27006  99.6637 200.3583 0015313 104.2384   3.0646 13.71020262111009
Epoch (UTC): 22 February 2024 23:12:13
Eccentricity: 0.0015313
inclination: 99.6637°
perigee height: 984 km
apogee height: 1007 km
right ascension of ascending node: 200.3583°
argument of perigee: 104.2384°
revolutions per day: 13.71020262
mean anomaly at epoch: 3.0646°
orbit number at epoch: 11100

The dashed part of the orbit path shows where the satellite is in the earth's shadow,  

DLR